Theta_e
347 345 345 344 344 344 345 345 346 347 347 348 349 350 350 351 353 355 357 353 348 348 349 347 346 347 348 348 349 347 347 347 348 349 348 347 347 346 345 348 349 350 351 351 350 351 351 351 352 353 349 344 344 344 343 343 342 342 343 344 347 346 349
347 345 344 344 344 344 345 346 345 346 348 348 349 351 351 350 352 355 356 354 348 346 349 348 345 346 347 348 349 348 347 348 350 349 348 347 349 348 347 351 352 351 353 354 353 352 353 352 351 353 351 345 343 342 341 342 340 341 342 340 342 345 346
347 346 344 344 344 344 345 345 345 346 348 349 349 351 350 350 352 354 355 354 349 344 347 349 346 346 346 347 348 348 349 349 349 349 349 349 350 350 351 353 351 350 353 355 353 352 353 352 348 349 349 347 347 344 340 342 340 339 342 340 341 343 343
348 346 344 344 344 344 345 345 346 346 348 349 349 350 350 349 351 353 354 354 350 344 344 348 348 346 346 347 346 346 348 349 349 350 351 351 350 351 353 354 353 352 353 354 352 352 353 352 346 344 344 346 351 349 340 341 342 338 340 340 341 344 342
349 346 345 345 344 344 345 345 345 346 347 348 349 349 350 349 351 352 354 356 353 347 344 347 350 348 346 346 346 345 345 347 349 352 354 353 352 353 354 353 353 354 354 353 353 353 353 352 346 342 340 342 350 350 342 341 344 341 339 339 341 345 346
349 347 346 346 345 344 345 345 345 345 346 349 349 349 350 350 351 352 353 355 354 352 350 351 352 350 348 347 347 347 344 344 348 350 353 355 353 354 355 354 353 353 354 355 353 352 351 351 351 348 342 339 346 351 347 344 346 345 341 339 340 344 350
348 347 346 346 346 344 345 346 345 345 346 349 349 348 348 349 349 350 351 352 353 353 353 353 353 351 351 353 352 351 345 341 346 349 352 356 355 354 355 355 354 353 354 354 353 354 350 349 353 354 349 345 346 351 352 348 349 351 348 342 341 341 346
350 348 347 347 347 345 346 346 345 345 346 347 347 347 347 348 347 348 349 350 350 351 351 351 351 350 351 353 353 353 349 345 345 347 351 356 355 354 355 355 355 354 353 353 354 355 354 350 352 355 354 351 349 350 353 352 350 352 352 348 344 341 344
350 349 347 347 347 346 346 346 345 345 345 346 346 347 346 346 346 346 347 348 348 349 349 349 349 348 349 351 350 351 352 351 350 350 352 355 355 355 356 355 355 354 354 354 353 354 355 353 353 354 353 353 352 351 352 352 349 349 352 352 348 345 346
350 349 349 348 347 346 346 346 346 345 345 345 345 346 346 345 345 345 345 347 347 347 348 348 348 348 349 350 350 349 351 352 353 353 353 355 355 355 355 355 354 354 354 354 353 353 354 353 354 354 352 351 353 352 350 350 348 347 351 352 351 350 350
350 351 350 348 347 347 346 346 346 344 344 345 345 346 346 345 345 344 345 347 347 347 348 347 347 348 348 349 351 351 351 351 352 353 352 353 354 354 354 354 354 354 354 355 354 353 354 353 353 354 352 350 351 350 347 347 347 346 350 352 353 352 351
352 352 350 350 350 349 347 346 345 345 345 345 346 346 346 345 345 345 344 346 347 347 348 347 347 347 348 349 350 350 350 350 350 350 351 351 351 352 352 353 353 353 354 354 354 353 353 354 354 354 352 350 351 350 346 345 347 347 349 352 354 352 350
351 352 351 352 352 350 349 346 345 345 344 345 346 346 346 346 345 345 345 346 347 347 347 347 347 347 347 349 350 350 350 350 349 349 349 349 349 349 349 350 351 352 353 353 353 352 353 353 354 354 352 350 352 353 351 348 348 348 347 349 352 352 350
352 353 354 354 353 352 350 347 345 345 345 346 347 346 347 346 345 345 345 346 347 348 348 347 347 348 348 349 351 351 349 350 350 348 348 347 347 347 346 347 347 349 350 351 352 352 352 351 352 354 353 351 350 353 353 352 351 349 347 346 348 349 349
348 350 353 354 355 356 354 351 348 348 348 347 346 347 349 349 348 347 346 347 348 349 350 348 347 348 349 350 351 351 350 350 350 349 348 347 346 345 345 345 345 345 346 346 348 351 351 350 350 352 353 352 351 351 351 352 352 351 349 347 346 346 347
346 346 350 353 356 359 359 356 353 351 350 349 347 348 351 352 351 350 349 349 350 350 352 353 351 350 350 351 351 351 351 351 350 350 348 347 346 345 344 344 344 344 344 345 346 347 348 348 349 350 351 351 352 352 352 352 353 353 352 351 349 348 348
346 346 349 352 354 355 356 356 354 352 351 351 350 351 353 354 353 352 351 352 353 353 355 358 358 354 351 353 354 354 353 352 351 351 349 348 348 346 344 344 345 344 344 345 346 346 346 346 346 348 349 350 351 352 353 352 352 352 352 353 352 350 351
347 346 347 349 351 353 353 353 354 353 353 353 354 353 353 353 353 353 353 354 355 355 356 359 359 357 353 353 355 356 355 353 353 352 351 350 349 348 346 345 346 346 345 345 346 346 346 346 346 347 347 348 349 351 352 351 351 351 352 353 351 349 351
350 348 347 348 350 351 351 350 352 354 355 355 355 354 353 352 352 352 352 351 352 353 354 356 358 357 354 351 353 357 356 354 352 351 351 349 347 348 348 346 345 346 346 346 347 347 347 347 348 349 349 348 348 348 349 348 349 351 351 351 350 348 348
352 350 349 349 350 350 350 350 351 353 354 354 354 353 353 353 353 353 352 352 352 352 353 355 356 356 355 353 354 356 356 354 350 348 348 346 343 344 347 345 344 344 345 346 347 350 351 350 350 350 351 350 348 347 347 346 346 348 348 348 348 347 346
350 351 350 350 350 349 349 350 351 351 351 352 352 351 352 353 353 353 354 354 354 354 354 354 354 354 353 354 354 354 353 353 352 350 348 345 343 344 345 344 343 343 345 344 345 350 353 351 350 350 350 351 349 348 348 347 347 346 346 346 346 346 345
349 350 350 349 349 349 348 348 349 349 348 348 349 350 351 351 351 352 353 353 354 354 354 354 354 353 352 352 352 353 350 349 352 353 350 347 345 344 344 345 345 345 345 344 345 349 350 349 349 349 348 350 350 347 346 347 348 347 347 347 346 346 345
348 348 348 348 347 347 347 347 347 347 346 346 348 348 348 348 348 348 349 351 352 353 353 353 353 352 352 351 352 352 350 347 349 352 351 350 349 347 345 346 347 347 347 348 350 351 349 347 348 347 346 348 349 347 345 346 348 348 348 347 347 346 344
346 346 346 346 346 346 345 346 346 346 345 346 346 346 346 346 346 346 347 348 349 350 351 352 352 352 352 352 352 352 351 349 348 350 351 351 351 349 348 348 348 348 348 349 351 351 349 347 347 347 348 347 346 346 346 347 349 349 348 347 346 346 345
344 344 345 345 345 345 345 345 345 344 344 344 345 345 345 344 344 345 346 346 347 348 348 349 351 351 352 352 351 351 352 351 349 349 349 349 349 348 348 348 347 347 347 348 348 348 347 346 346 349 350 348 346 346 346 347 349 349 347 345 345 346 347
342 343 343 343 343 343 343 343 343 343 343 343 343 344 344 344 344 345 346 346 346 347 347 347 349 349 349 349 349 350 351 350 350 351 350 349 349 348 347 348 348 347 348 348 348 347 347 346 346 348 349 349 349 349 348 348 349 348 345 344 345 347 349
340 340 341 341 341 342 341 341 341 341 341 341 342 343 343 344 344 344 344 345 345 345 345 345 346 347 347 347 348 349 349 349 350 351 350 349 349 349 348 349 349 349 349 348 347 347 347 347 347 347 347 349 350 349 348 349 349 348 346 346 346 348 349
338 338 338 339 339 339 338 338 338 338 338 339 340 341 342 343 343 342 342 342 342 342 343 344 344 344 345 345 346 346 346 346 347 347 347 347 348 348 348 347 347 347 347 346 347 347 346 346 347 347 347 347 347 346 347 348 348 347 347 347 347 347 347
336 336 336 337 336 336 335 335 334 335 335 336 337 338 339 340 340 340 339 339 339 339 340 341 342 343 343 343 343 343 343 342 343 343 344 344 345 345 345 344 344 344 344 343 343 343 343 343 343 343 343 343 342 343 344 344 344 346 345 344 343 343 344
333 334 334 334 334 333 333 332 332 332 333 334 335 336 337 337 336 336 336 336 336 337 338 337 336 337 339 340 339 339 339 339 339 340 340 340 341 341 340 339 339 339 338 339 339 340 339 339 339 339 339 338 338 340 340 338 337 339 338 337 336 336 336
332 332 333 332 332 332 331 331 331 331 330 331 332 333 335 335 334 333 333 331 330 331 332 332 331 333 334 335 336 336 335 335 335 335 334 334 334 334 333 332 331 331 330 330 330 331 331 331 332 333 333 331 331 332 332 331 330 330 329 328 328 328 327
332 331 331 331 330 330 330 330 329 328 329 329 329 331 332 332 332 332 332 331 329 328 327 328 331 331 331 331 331 331 331 331 330 330 329 329 330 330 330 330 330 329 329 327 326 326 325 323 323 323 323 323 323 323 323 323 322 323 322 322 323 323 321
331 330 330 330 330 329 329 328 327 327 327 327 328 328 329 329 330 330 330 330 331 331 329 329 329 329 329 329 329 328 328 327 327 327 326 325 326 327 328 329 331 331 331 330 331 331 330 327 325 324 324 323 321 322 323 322 321 321 321 320 319 317 316
331 330 330 330 329 329 328 328 327 327 327 327 327 326 327 327 327 328 328 329 330 330 330 330 329 327 327 328 328 328 329 327 327 328 326 323 323 322 322 324 326 326 326 328 330 332 332 331 330 329 329 328 326 326 326 325 323 320 318 317 315 313 313
331 330 329 329 329 328 327 326 326 326 325 325 325 326 326 326 325 326 328 329 329 328 328 329 329 328 327 327 327 327 327 327 328 328 326 325 324 321 320 320 320 319 320 322 327 330 330 330 330 329 329 329 328 327 327 326 322 318 314 313 313 312 312
330 329 328 328 328 327 325 323 323 323 323 322 323 324 324 324 324 325 326 327 328 328 328 328 328 327 327 327 326 326 326 326 327 326 325 325 324 323 323 321 318 318 319 320 324 328 329 329 329 328 327 327 327 327 327 326 324 320 315 313 313 313 312
329 329 328 327 326 326 323 318 315 315 316 317 317 319 321 324 325 324 324 325 326 328 328 328 328 327 327 326 325 325 326 326 325 324 325 324 323 323 323 320 316 317 319 319 320 323 325 327 328 327 326 326 326 327 326 326 325 324 319 314 312 311 311
329 327 327 326 325 324 320 316 313 312 312 312 313 314 317 321 323 324 324 324 325 326 327 328 327 327 327 326 325 325 326 326 324 324 324 324 322 321 321 319 317 316 317 317 317 318 320 325 327 326 326 326 325 325 325 325 324 323 319 313 311 310 310
Wind_Speed
24 25 25 25 25 25 25 25 24 25 25 23 23 22 21 22 24 23 22 23 21 19 18 17 17 17 17 16 15 15 14 14 15 14 13 13 13 13 13 12 11 11 10 10 11 11 10 11 11 9 8 8 8 8 7 7 7 7 8 8 7 6 6
23 24 25 25 25 25 26 26 24 24 25 23 22 23 21 22 23 23 23 23 22 20 19 18 18 18 17 17 16 15 15 14 14 14 14 13 12 12 12 12 11 12 11 10 11 12 12 13 14 12 9 8 8 7 7 7 7 7 7 7 8 6 6
22 23 25 26 26 25 26 27 25 23 25 24 23 23 22 22 22 22 23 23 22 21 20 18 18 18 18 17 17 15 15 15 14 14 14 14 13 11 11 12 11 11 12 11 11 11 11 12 13 13 10 8 8 7 7 7 7 7 7 7 7 6 6
23 22 24 25 26 26 26 27 26 24 24 24 23 23 23 22 21 21 22 22 22 23 22 21 19 18 18 17 17 17 16 15 14 14 13 13 13 12 12 12 11 11 11 11 10 9 10 11 11 12 10 10 10 9 7 7 7 8 8 7 7 6 5
22 20 22 25 26 26 26 28 26 25 25 24 24 23 22 23 21 21 21 21 22 22 22 22 20 20 19 17 17 17 16 16 15 15 14 12 13 14 13 13 12 11 11 11 11 12 12 11 10 11 11 11 12 10 8 8 7 7 8 7 7 6 5
20 20 22 23 28 27 25 28 27 25 25 24 24 23 22 23 22 21 22 21 22 22 22 22 21 21 21 19 18 17 17 17 16 16 16 14 14 14 13 12 13 12 11 11 12 13 13 11 9 10 10 11 12 10 8 8 8 7 7 7 8 7 6
18 21 24 22 26 29 26 27 27 25 24 24 24 24 23 23 23 22 22 22 22 22 22 22 22 22 22 20 19 18 18 18 17 17 18 16 15 15 13 12 13 12 12 12 12 12 12 11 11 10 10 9 10 9 8 8 8 8 8 7 8 8 8
20 21 26 25 25 28 26 26 27 24 23 23 24 25 24 23 23 23 22 23 23 22 22 22 22 23 22 21 21 20 19 18 18 18 18 17 16 16 15 14 14 13 12 12 12 11 11 11 11 11 11 10 10 11 11 11 10 10 9 8 8 9 8
25 22 25 27 26 28 27 25 26 26 24 24 24 24 24 23 23 24 23 23 24 23 23 22 22 22 21 21 21 20 20 19 19 19 18 17 17 16 15 15 16 15 14 13 12 12 12 12 11 11 12 12 12 12 13 12 10 10 10 8 8 8 8
29 24 24 27 28 30 30 25 25 28 26 25 25 24 23 23 23 24 24 24 24 24 24 22 23 23 22 21 21 20 20 20 19 19 19 18 17 17 16 16 16 15 15 15 13 13 13 12 12 13 12 12 13 13 12 12 10 10 11 10 9 9 8
31 27 26 27 26 29 32 29 27 30 28 25 25 26 24 23 23 23 25 26 24 24 24 23 24 24 23 22 22 21 20 20 19 19 19 18 18 17 17 16 16 15 15 15 15 15 13 11 12 15 13 12 12 13 12 12 11 11 11 10 9 9 8
31 29 29 29 26 27 31 33 30 31 31 24 22 26 25 23 22 22 24 26 25 25 24 23 24 25 24 23 23 23 21 21 20 19 19 19 17 16 17 17 16 16 15 15 17 17 16 13 13 14 13 11 12 12 11 11 11 10 10 10 10 9 8
28 28 26 27 29 28 30 33 33 33 33 27 21 24 26 25 23 22 24 26 25 25 26 25 24 25 25 25 24 24 24 22 21 20 19 19 18 16 16 17 17 16 15 15 16 17 16 14 14 13 12 12 12 12 11 10 10 10 10 10 10 10 10
18 21 23 25 29 29 29 34 34 32 33 30 24 24 26 25 24 23 24 26 26 26 27 26 24 24 25 26 25 25 25 24 23 21 19 18 18 17 16 16 17 16 14 14 15 16 16 15 15 14 14 12 12 13 12 11 11 10 10 10 11 11 11
15 17 20 23 26 27 29 33 35 33 33 32 29 28 28 27 25 23 24 26 27 26 27 27 26 24 25 26 25 24 25 25 24 22 20 18 17 18 18 16 16 17 15 13 14 15 15 14 13 14 15 13 12 12 12 12 12 12 10 11 11 11 11
19 20 21 21 20 20 24 31 35 34 33 33 32 31 31 30 29 27 25 25 26 27 27 27 27 26 26 27 26 24 24 24 24 23 23 20 17 19 20 17 15 16 16 14 14 14 14 14 13 13 13 13 13 13 13 13 14 13 11 11 11 10 10
21 24 25 25 20 16 18 24 30 33 33 32 32 32 32 31 30 30 28 27 27 28 27 26 27 29 29 28 27 25 24 23 21 21 23 22 18 18 21 20 16 14 16 16 15 14 15 15 14 13 13 13 13 14 14 15 16 14 12 12 12 11 11
22 22 22 24 22 19 18 17 19 24 27 27 26 28 28 28 27 27 27 27 27 28 27 26 26 29 30 29 28 26 25 23 20 18 18 20 19 18 20 23 21 18 17 17 17 17 17 16 15 15 14 13 12 14 15 16 16 14 13 13 14 13 13
13 13 14 16 16 17 18 16 15 17 20 20 18 17 19 22 22 22 22 24 25 25 26 26 26 27 28 28 27 26 25 24 22 19 16 16 20 22 24 25 24 24 22 20 19 19 19 18 17 16 15 13 12 15 16 15 14 15 15 15 16 14 14
8 9 11 13 13 12 13 16 19 19 20 20 16 13 13 14 15 16 18 21 22 22 23 24 24 23 22 22 23 24 24 23 22 23 22 21 23 25 26 25 24 25 26 25 22 19 18 19 18 16 16 15 14 16 17 16 16 17 17 17 17 16 16
11 11 10 12 13 12 11 11 12 13 15 18 15 11 12 12 13 16 19 21 21 21 21 20 20 20 18 17 17 18 21 21 21 24 27 27 26 27 27 26 25 24 24 25 24 21 18 18 17 16 16 16 15 16 18 17 17 18 18 18 17 17 17
12 11 11 11 11 9 7 7 6 6 8 11 8 6 7 9 10 12 15 16 18 18 19 18 17 18 18 17 14 14 18 21 22 24 26 28 28 29 28 27 27 26 25 24 24 23 21 20 18 17 16 16 17 17 18 19 19 19 19 19 18 18 17
13 12 11 9 8 7 4 4 7 9 9 8 7 7 6 5 5 6 8 10 11 12 14 15 15 15 16 16 14 14 17 21 22 22 24 26 27 27 26 25 25 25 25 23 22 22 22 22 21 20 19 19 19 19 19 20 21 21 21 20 20 18 17
14 13 12 9 8 8 7 7 9 10 12 12 11 11 9 6 4 3 5 7 8 9 11 12 13 14 15 15 16 15 15 18 20 20 22 24 24 23 23 23 23 23 24 23 22 21 20 21 22 23 23 22 22 22 22 21 21 21 20 20 20 18 17
14 13 12 10 9 9 8 9 9 8 8 10 11 10 9 7 5 4 4 4 4 5 7 10 12 13 12 12 15 16 15 16 18 19 20 21 20 22 23 23 23 22 22 22 22 22 19 18 21 25 25 24 25 25 25 24 22 21 20 19 18 17 16
14 14 13 12 12 12 10 10 10 10 9 9 9 9 8 7 6 6 7 6 6 6 5 6 9 11 11 9 10 13 14 15 16 17 18 19 19 21 23 24 24 24 23 22 21 20 19 19 22 25 25 25 27 27 26 25 23 22 21 19 18 17 16
14 13 12 13 14 14 12 11 11 11 10 9 9 8 7 8 9 9 8 7 8 9 9 8 7 7 7 5 6 9 13 14 15 15 17 18 19 20 21 21 22 21 21 20 19 19 18 19 21 24 26 26 26 26 25 22 20 20 20 18 16 15 14
12 11 11 13 15 14 13 13 12 12 12 11 9 8 7 7 9 10 12 12 10 10 9 10 10 9 9 10 10 9 8 10 12 12 13 14 16 17 17 15 14 14 14 15 16 17 16 16 18 22 25 25 21 20 19 19 17 17 17 15 12 11 11
12 11 11 12 14 13 13 14 15 16 15 13 12 10 8 9 11 13 15 15 14 11 9 10 11 11 11 13 15 15 13 11 10 11 12 12 12 13 13 11 10 9 9 10 11 12 13 13 14 17 19 17 14 13 13 13 13 12 11 10 10 9 9
13 14 13 14 14 13 12 14 16 17 15 13 12 12 11 12 13 13 13 13 12 10 10 10 10 10 12 15 17 18 17 14 13 13 13 12 12 11 11 10 10 10 10 10 10 11 11 11 10 11 11 11 11 11 9 8 7 8 8 8 7 8 8
13 13 12 12 12 11 10 11 13 14 13 11 10 11 12 13 13 13 13 11 10 10 10 11 10 10 11 12 13 14 15 15 15 16 15 14 13 13 13 12 11 11 11 11 11 10 10 10 9 9 9 10 11 11 10 8 8 8 8 8 8 7 8
13 12 10 9 9 8 8 10 11 12 12 11 9 9 10 12 13 13 12 11 10 10 10 12 13 12 11 10 10 11 12 13 15 14 14 14 14 14 14 13 12 12 12 11 11 10 9 9 8 7 6 7 8 9 8 7 8 8 7 7 7 7 6
14 14 13 13 11 10 10 11 12 13 12 11 9 8 8 10 11 11 10 9 8 10 11 11 11 11 10 10 10 10 9 10 11 10 9 10 11 13 13 11 11 11 10 11 11 9 7 6 5 4 3 3 4 5 5 5 5 5 4 4 4 4 4
14 15 15 15 14 14 14 12 13 13 13 12 12 10 9 9 8 8 7 7 6 8 11 10 8 8 9 8 8 8 8 10 10 8 5 4 6 8 9 9 8 9 9 10 13 12 8 6 6 5 4 5 6 6 6 5 3 3 3 4 3 2 2
14 17 16 16 15 15 14 13 14 14 14 14 14 12 9 9 9 7 7 7 5 5 8 9 7 7 7 6 6 8 7 8 7 4 1 1 2 4 6 7 6 6 7 8 11 12 11 9 8 8 7 7 7 8 7 4 2 2 2 1 1 1 1
13 16 16 16 16 15 14 14 15 15 15 14 14 13 10 9 10 8 6 6 6 6 9 9 7 6 6 5 6 7 6 6 7 4 2 1 2 5 7 5 3 6 8 9 10 11 11 10 10 9 8 8 8 9 8 6 4 1 2 3 3 3 3
12 15 17 17 16 14 13 13 13 13 12 12 12 11 9 9 8 6 5 7 6 5 7 8 7 6 5 5 7 6 4 5 7 5 2 1 1 4 6 4 2 6 9 9 10 12 11 11 11 10 9 9 9 9 9 8 8 6 6 6 5 4 3
12 15 18 17 16 15 13 12 12 11 11 10 10 11 10 9 9 6 7 9 8 6 7 8 6 5 5 5 7 6 4 5 6 5 4 4 5 2 3 4 2 5 7 7 9 11 11 12 12 11 10 9 9 10 10 10 10 10 9 8 6 4 3
Wind_Direction
192 187 185 185 182 180 180 181 181 177 175 175 176 179 177 176 176 177 181 183 183 182 181 180 178 178 180 180 182 186 185 186 185 184 185 183 185 186 180 180 180 177 180 180 178 178 172 172 185 196 194 192 191 191 190 188 187 186 183 183 182 178 173
198 188 184 184 182 182 180 181 182 178 177 178 178 180 180 177 179 181 184 185 185 185 184 184 182 179 181 181 182 188 188 187 190 188 187 184 187 190 182 180 184 180 178 180 183 185 183 182 184 191 199 197 194 196 195 196 194 189 190 188 186 190 179
205 192 183 181 182 184 180 180 185 182 179 181 180 182 181 178 179 183 187 187 186 188 186 186 186 182 183 183 183 189 189 189 193 190 188 188 188 186 178 180 187 184 181 186 192 189 188 193 190 193 199 188 191 208 199 193 199 195 198 195 187 197 186
206 195 184 182 181 183 181 179 186 185 182 183 183 184 182 179 179 185 190 189 187 190 189 188 188 185 186 186 186 191 190 192 193 188 190 193 188 185 185 186 187 187 188 190 192 184 189 203 198 197 200 181 186 212 205 193 200 197 203 203 189 201 207
208 194 184 186 181 181 182 181 187 189 185 184 184 184 183 181 180 183 186 186 186 190 191 190 188 187 190 190 190 192 191 193 191 184 187 194 188 188 194 192 186 188 193 194 191 183 191 209 204 198 203 188 187 207 206 194 200 204 206 206 199 203 213
207 194 186 189 182 181 184 183 189 193 186 184 185 185 184 183 184 183 183 184 185 187 189 188 188 190 192 191 191 193 194 194 191 185 186 191 189 187 194 193 186 188 193 195 199 194 196 205 201 200 207 198 193 203 210 202 200 212 215 205 207 206 198
199 193 192 193 182 182 186 185 189 193 188 186 185 185 186 186 187 187 184 184 184 186 187 186 188 193 193 188 188 193 198 195 191 189 187 189 191 188 193 195 189 192 195 194 200 203 206 204 195 198 205 203 195 193 214 222 201 209 225 213 213 217 208
190 190 195 195 183 182 186 186 188 191 191 189 186 186 189 190 191 191 189 186 186 188 189 186 189 196 194 190 190 193 197 195 194 194 190 192 195 191 195 198 193 193 195 198 200 199 207 208 199 199 198 198 198 192 208 225 210 207 223 222 222 227 222
193 188 193 195 187 185 187 187 189 193 195 193 187 187 192 193 193 193 191 188 187 190 191 188 192 199 197 194 196 196 195 194 196 197 194 196 199 197 200 202 198 194 192 197 200 199 207 206 200 209 205 196 201 201 207 220 218 212 217 222 230 230 224
195 188 186 188 187 188 188 188 191 193 197 197 191 188 193 196 194 194 193 189 188 191 193 190 192 201 200 195 197 199 197 196 198 199 198 199 200 200 203 204 202 197 195 198 198 200 210 204 194 211 216 202 203 210 213 218 221 220 217 219 231 235 232
193 187 182 180 181 186 189 194 196 192 193 199 194 189 193 196 194 195 195 190 187 190 193 193 194 200 203 198 196 198 199 200 200 200 202 201 201 202 203 206 206 200 197 203 203 199 203 202 199 211 218 211 210 216 220 222 224 225 220 220 228 233 237
190 189 185 181 181 183 188 195 196 189 188 195 195 190 193 197 195 197 196 191 189 191 193 197 199 202 205 203 200 199 200 202 202 203 204 204 204 204 204 209 212 206 201 205 208 203 198 198 208 218 220 216 216 220 221 221 225 227 223 224 228 229 234
190 192 191 187 185 185 189 193 191 187 188 193 196 191 191 195 195 199 200 194 193 195 195 197 201 204 206 206 204 203 201 203 204 204 205 206 206 205 207 215 219 216 212 210 212 211 204 196 203 221 229 221 217 223 225 221 224 229 226 225 228 229 233
184 186 188 191 192 190 193 194 189 189 191 195 199 194 191 196 198 202 202 197 195 198 198 198 199 203 207 207 208 208 205 204 205 205 206 210 210 206 206 216 222 223 222 219 214 212 212 205 200 213 229 228 217 219 225 225 225 230 229 225 228 231 234
182 189 190 193 195 188 185 188 188 191 194 196 198 195 190 193 196 197 196 193 194 198 200 201 200 203 209 209 209 211 209 206 205 204 204 209 214 212 207 210 221 227 230 230 219 211 217 221 213 212 221 226 224 224 229 230 228 231 234 229 231 237 238
184 199 202 198 194 181 174 178 182 187 192 195 197 195 192 191 193 193 190 188 193 199 203 205 204 205 210 212 212 213 211 209 208 206 203 203 211 215 210 207 214 224 227 228 222 214 218 227 228 224 223 227 229 226 227 232 230 230 232 232 236 241 241
193 202 206 202 197 188 178 176 179 183 186 189 191 192 193 193 194 197 196 194 198 202 205 206 205 207 209 211 212 213 212 209 208 208 206 204 208 216 216 213 212 215 215 215 216 215 215 218 223 225 227 233 233 224 226 234 235 233 233 235 241 243 240
197 194 196 198 199 198 191 185 183 182 184 187 188 190 193 195 196 198 200 202 204 207 210 209 208 211 213 213 212 213 214 211 206 207 207 202 203 208 214 216 215 212 210 210 214 216 215 214 217 216 217 226 231 228 234 239 235 233 236 240 245 244 240
193 174 172 181 192 198 200 202 198 187 184 185 181 181 190 196 197 200 204 209 212 214 216 214 214 215 217 219 218 216 215 211 207 212 215 209 209 211 213 217 217 214 211 211 214 218 220 219 220 220 218 219 228 236 240 240 235 234 238 243 248 248 245
156 138 141 150 157 167 180 194 202 200 195 188 180 177 184 187 190 198 206 213 215 216 216 216 217 219 218 219 221 220 218 214 211 216 221 221 223 223 221 221 223 220 217 217 217 219 223 221 216 219 220 218 227 238 239 236 234 236 239 241 246 249 250
144 134 130 137 146 149 143 154 181 196 189 180 174 178 185 185 191 201 208 210 211 213 217 219 222 227 228 223 220 219 219 217 212 213 218 222 225 228 228 226 227 225 222 224 223 220 225 226 218 214 216 216 222 231 235 234 233 234 236 239 244 248 251
149 141 133 133 139 142 131 125 136 148 160 164 154 144 168 188 201 211 214 215 216 218 221 222 226 231 232 226 216 208 213 217 214 212 217 220 221 225 227 226 226 226 224 226 226 219 221 230 230 224 222 224 227 230 234 237 239 240 239 239 242 246 250
136 123 115 117 121 120 113 112 112 105 110 131 140 134 145 173 199 217 221 222 226 228 225 224 225 226 224 219 210 205 211 219 221 217 216 216 215 217 221 223 223 224 223 224 224 218 216 224 232 233 229 229 233 236 237 238 240 242 242 240 241 244 247
119 108 101 103 107 108 108 110 109 103 102 108 119 129 133 130 135 173 200 209 219 225 225 223 221 222 221 217 212 206 205 214 219 215 211 211 210 210 214 220 222 223 223 223 225 225 219 218 228 234 230 227 233 239 240 240 239 239 241 241 240 241 242
104 102 102 104 105 106 111 110 105 108 117 112 104 112 122 113 101 115 134 152 177 197 212 217 219 224 230 227 219 212 209 211 213 212 213 214 211 208 213 220 224 225 226 227 229 232 226 217 223 231 231 230 233 235 237 238 236 236 240 243 240 237 238
85 89 94 98 100 103 105 105 99 96 106 108 96 94 104 107 103 109 119 127 128 126 146 187 210 226 239 243 232 222 219 214 204 199 207 213 210 208 212 219 224 224 225 226 228 231 230 224 223 229 234 233 230 229 229 230 229 232 240 246 246 243 244
73 79 86 92 98 98 95 95 92 83 83 88 87 85 95 111 118 115 112 117 117 109 111 125 148 177 197 199 199 206 213 215 207 196 197 204 207 208 209 214 218 218 219 223 227 231 232 228 224 227 230 228 223 219 219 221 223 229 238 246 248 246 245
85 86 87 93 98 95 91 89 87 84 82 78 75 80 98 114 116 112 106 102 100 100 105 113 121 133 145 145 150 162 178 198 204 196 186 188 198 204 205 206 210 211 211 213 219 221 219 215 215 216 215 212 209 208 211 215 221 227 234 240 242 241 238
91 89 85 90 92 89 90 93 91 85 81 76 70 70 85 99 101 105 104 99 94 96 103 108 111 117 123 123 125 124 123 130 150 162 165 168 177 185 185 179 178 181 178 174 180 183 178 180 193 200 198 194 193 197 203 208 211 216 221 224 220 217 217
93 88 86 94 97 91 85 88 89 81 74 76 77 73 75 85 91 94 94 92 93 97 97 99 105 112 115 114 113 112 111 112 120 130 136 140 145 147 142 137 139 142 140 138 142 147 146 149 163 176 178 173 170 177 187 188 186 191 196 197 191 182 181
114 103 92 99 110 111 98 88 85 77 69 73 79 77 80 84 84 82 79 78 88 96 93 93 95 97 101 106 107 107 107 108 114 119 119 119 122 119 109 102 105 112 116 118 119 123 128 134 143 155 159 151 144 148 155 160 161 162 165 168 167 164 163
134 127 111 109 119 126 122 108 94 83 76 76 75 74 79 82 84 85 82 78 84 90 89 91 91 85 82 83 82 88 99 105 110 114 115 116 118 115 110 106 103 104 108 111 108 103 104 115 126 137 140 139 136 134 137 148 156 156 157 161 162 160 159
139 132 127 131 132 127 123 117 108 98 90 86 86 81 77 79 82 84 84 83 88 93 93 91 88 86 89 86 78 78 85 90 94 102 111 119 123 119 117 120 122 123 126 128 123 112 94 89 93 89 90 107 117 123 137 152 155 154 168 184 173 161 163
150 142 139 142 140 134 128 120 114 112 105 97 95 89 79 79 79 74 80 90 95 101 103 98 88 89 94 90 91 97 89 82 90 99 108 123 132 131 132 140 147 149 148 139 132 129 126 125 123 121 124 115 105 118 148 159 137 133 168 190 187 175 185
164 158 154 152 149 150 147 132 117 114 111 110 114 112 103 101 96 82 86 96 93 106 115 107 100 109 109 99 108 115 100 92 104 108 60 40 131 161 170 170 171 176 173 159 151 150 154 162 161 155 158 157 143 150 170 179 143 115 133 186 245 284 289
179 175 174 170 167 172 170 152 134 124 116 116 127 133 134 130 118 103 100 101 95 114 130 123 115 127 130 120 124 122 106 112 125 110 49 18 143 167 181 186 181 187 187 178 173 172 171 176 181 176 175 181 182 183 197 218 226 247 342 328 302 297 304
198 192 190 185 182 185 180 168 161 152 137 130 132 130 132 146 149 138 130 124 105 105 132 135 134 147 156 151 148 141 119 136 150 143 138 279 253 183 195 223 215 189 194 192 189 190 190 190 193 193 191 195 200 204 213 229 240 258 292 302 294 293 299
194 195 196 195 198 201 193 184 183 175 159 150 144 132 129 147 160 157 146 145 140 128 133 138 141 154 175 177 163 143 111 125 163 189 220 271 303 280 218 243 238 196 200 205 203 203 204 203 207 213 215 217 221 227 232 239 248 260 276 286 288 293 305